VK1ET-13 Weather Reports


time (UTC)temp
F
wind
direction
speed
knots
gust
knots
rain 1hr
in
rain 24hr
in
rain mn
in
humidity
%
barometer
mb
20260510032524 69 1 2.6 4.3 0.00 0.00 0.00 49 1027.2
20260510031534 70 19 3.5 6.1 0.00 0.00 0.00 47 1027.2
20260510030522 69 345 5.2 8.7 0.00 0.00 0.00 49 1027.3
20260510025533 68 357 2.6 5.2 0.00 0.00 0.00 49 1027.4
20260510024521 68 333 5.2 7.8 0.00 0.00 0.00 48 1027.6
20260510023530 68 350 5.2 7.8 0.00 0.00 0.00 49 1027.7
20260510022519 66 316 3.5 7.0 0.00 0.00 0.00 51 1028.0
20260510021528 66 12 3.5 7.0 0.00 0.00 0.00 53 1028.1
20260510020517 66 351 2.6 6.1 0.00 0.00 0.00 52 1028.2
20260510015527 66 13 4.3 7.0 0.00 0.00 0.00 54 1028.2
20260510014537 66 359 6.1 8.7 0.00 0.00 0.00 56 1028.5
20260510013533 65 345 6.1 7.8 0.00 0.00 0.00 58 1028.7
20260510012541 64 349 5.2 7.8 0.00 0.00 0.00 62 1028.7
20260510011523 63 318 4.3 9.6 0.00 0.00 0.00 65 1028.7
20260510010532 61 296 1.7 3.5 0.00 0.00 0.00 65 1028.8
20260510005521 60 349 2.6 5.2 0.00 0.00 0.00 67 1028.8
20260510004531 60 326 3.5 5.2 0.00 0.00 0.00 67 1028.8
20260510003520 59 285 1.7 4.3 0.00 0.00 0.00 69 1028.8
20260510002529 58 305 1.7 3.5 0.00 0.00 0.00 71 1028.8
20260510001518 57 279 1.7 2.6 0.00 0.00 0.00 71 1028.7
20260510000527 57 210 1.7 3.5 0.00 0.00 0.00 70 1028.8
20260509235536 56 218 1.7 2.6 0.00 0.00 0.00 72 1028.7
20260509234525 55 173 1.7 3.5 0.00 0.00 0.00 75 1028.7
20260509233536 54 129 1.7 3.5 0.00 0.00 0.00 79 1028.7
20260509232524 53 170 2.6 3.5 0.00 0.00 0.00 81 1028.8
20260509231533 53 174 2.6 5.2 0.00 0.00 0.00 84 1028.8
20260509230529 52 185 1.7 4.3 0.00 0.00 0.00 86 1028.8
20260509225532 51 161 1.7 3.5 0.00 0.00 0.00 92 1028.9
20260509224522 49 95 1.7 2.6 0.00 0.00 0.00 98 1028.7
20260509223530 48 30 0.9 1.7 0.00 0.00 0.00 98 1028.7
20260509222526 47 168 0.9 1.7 0.00 0.00 0.00 98 1028.5
20260509221529 46 301 0.9 1.7 0.00 0.00 0.00 98 1028.5
20260509220531 45 156 0.9 2.6 0.00 0.00 0.00 98 1028.4
20260509215527 44 191 0.9 2.6 0.00 0.00 0.00 99 1028.4
20260509214535 44 177 0.0 1.7 0.00 0.00 0.00 99 1028.3
20260509213525 44 66 0.9 1.7 0.00 0.00 0.00 99 1028.1
20260509212541 44 181 0.9 1.7 0.00 0.00 0.00 99 1028.0
20260509211524 44 206 0.0 3.5 0.00 0.00 0.00 99 1027.9
20260509210546 45 209 1.7 3.5 0.00 0.00 0.00 98 1027.6
20260509205521 45 199 0.9 1.7 0.00 0.00 0.00 97 1027.5
20260509204529 45 19 0.0 1.7 0.00 0.00 0.00 97 1027.3
20260509203517 44 65 0.0 1.7 0.00 0.00 0.00 98 1027.3
20260509202527 45 204 0.0 0.9 0.00 0.00 0.00 97 1027.1
20260509201544 44 145 0.9 1.7 0.00 0.00 0.00 98 1027.1
20260509200525 44 175 0.9 1.7 0.00 0.00 0.00 98 1026.9
20260509195534 45 359 2.6 3.5 0.00 0.00 0.00 97 1026.8
20260509194523 44 47 2.6 4.3 0.00 0.00 0.00 97 1026.7
20260509193533 44 24 1.7 4.3 0.00 0.00 0.00 97 1026.6
20260509192529 43 151 0.0 1.7 0.00 0.00 0.00 97 1026.5
20260509191532 43 307 0.9 2.6 0.00 0.00 0.00 98 1026.4
20260509190521 43 227 0.0 1.7 0.00 0.00 0.00 98 1026.1
20260509185536 44 164 0.9 2.6 0.00 0.00 0.00 97 1026.0
20260509184520 44 16 1.7 2.6 0.00 0.00 0.00 97 1026.1
20260509183529 44 19 0.0 1.7 0.00 0.00 0.00 98 1025.9
20260509182517 44 24 0.0 1.7 0.00 0.00 0.00 98 1025.9
20260509181534 44 193 0.9 1.7 0.00 0.00 0.00 97 1025.8
20260509180536 43 206 0.9 1.7 0.00 0.00 0.00 98 1025.8
20260509175525 44 176 0.9 2.6 0.00 0.00 0.00 98 1025.7
20260509174534 45 200 2.6 3.5 0.00 0.00 0.00 98 1025.6
20260509173530 45 191 2.6 4.3 0.00 0.00 0.00 98 1025.6
20260509172532 45 196 0.9 2.6 0.00 0.00 0.00 97 1025.7
20260509171521 46 6 0.0 1.7 0.00 0.00 0.00 97 1025.7
20260509170539 46 9 0.9 3.5 0.00 0.00 0.00 97 1025.7
20260509165521 45 11 1.7 4.3 0.00 0.00 0.00 97 1025.7
20260509164530 46 22 1.7 3.5 0.00 0.00 0.00 97 1025.7
20260509163519 45 8 1.7 3.5 0.00 0.00 0.00 97 1025.7
20260509162528 45 351 1.7 3.5 0.00 0.00 0.00 97 1025.5
20260509161517 45 195 0.9 1.7 0.00 0.00 0.00 97 1025.5
20260509160527 46 202 0.9 1.7 0.00 0.00 0.00 97 1025.6
20260509155538 46 169 1.7 2.6 0.00 0.00 0.00 97 1025.7
20260509154540 47 142 0.9 2.6 0.00 0.00 0.00 97 1025.7
20260509153534 47 163 1.7 3.5 0.00 0.00 0.00 97 1025.8
20260509152524 47 146 0.9 2.6 0.00 0.00 0.00 96 1025.9
20260509151533 47 94 0.9 1.7 0.00 0.00 0.00 96 1025.7
20260509150536 47 57 0.9 2.6 0.00 0.00 0.00 96 1026.0
20260509145532 47 135 0.0 1.7 0.00 0.00 0.00 96 1025.7
20260509144527 48 36 0.9 2.6 0.00 0.00 0.00 96 1025.9
20260509143528 48 171 0.9 2.6 0.00 0.00 0.00 96 1025.7
20260509142518 48 177 0.9 2.6 0.00 0.00 0.00 95 1025.9
20260509141529 47 171 2.6 3.5 0.00 0.00 0.00 96 1025.9
20260509140517 48 175 2.6 4.3 0.00 0.00 0.00 96 1025.7
20260509135526 48 146 1.7 3.5 0.00 0.00 0.00 95 1025.8
20260509134536 49 162 1.7 3.5 0.00 0.00 0.00 95 1025.8
20260509133525 49 166 1.7 3.5 0.00 0.00 0.00 95 1025.8
20260509132535 49 169 1.7 3.5 0.00 0.00 0.00 94 1025.8
20260509131523 50 75 1.7 3.5 0.00 0.00 0.00 94 1025.9
20260509130533 51 186 1.7 3.5 0.00 0.00 0.00 93 1026.1
20260509125522 51 164 1.7 3.5 0.00 0.00 0.00 93 1026.1
20260509124532 51 162 2.6 4.3 0.00 0.00 0.00 92 1026.0
20260509123521 52 116 0.9 3.5 0.00 0.00 0.00 91 1026.0
20260509122537 52 0.0 0.0 0.00 0.00 0.00 91 1026.0
20260509121518 52 6 1.7 2.6 0.00 0.00 0.00 90 1026.0
20260509120527 52 0.0 0.9 0.00 0.00 0.00 89 1025.9
20260509115524 53 353 1.7 2.6 0.00 0.00 0.00 88 1026.0
20260509114526 53 79 0.0 0.9 0.00 0.00 0.00 88 1025.9
20260509113535 52 151 0.0 0.9 0.00 0.00 0.00 88 1026.0
20260509112531 52 0.0 0.0 0.00 0.00 0.00 88 1026.1
20260509111535 54 205 2.6 4.3 0.00 0.00 0.00 83 1025.9
20260509110523 55 0.0 0.9 0.00 0.00 0.00 82 1025.7
20260509105533 55 0.0 0.0 0.00 0.00 0.00 83 1025.7
20260509104522 55 0.0 0.9 0.00 0.00 0.00 83 1025.7
20260509103538 55 0.0 0.0 0.00 0.00 0.00 83 1025.5
20260509102519 55 0.0 0.0 0.00 0.00 0.00 82 1025.5
20260509101528 55 0.0 0.9 0.00 0.00 0.00 81 1025.4
20260509100518 55 30 0.0 0.9 0.00 0.00 0.00 84 1025.3
20260509095527 54 0.0 0.0 0.00 0.00 0.00 84 1025.3
20260509094537 55 0.0 0.0 0.00 0.00 0.00 82 1025.2
20260509093525 56 215 0.0 0.9 0.00 0.00 0.00 81 1025.1
20260509092536 56 0.0 0.0 0.00 0.00 0.00 81 1025.0
20260509091524 56 145 0.0 0.9 0.00 0.00 0.00 79 1025.1
20260509090533 57 0.0 0.9 0.00 0.00 0.00 78 1025.0
20260509085522 57 9 0.0 0.9 0.00 0.00 0.00 77 1024.9
20260509084539 57 0.0 0.9 0.00 0.00 0.00 76 1024.8
20260509083521 58 7 0.0 1.7 0.00 0.00 0.00 75 1024.7
20260509082532 58 0.0 0.9 0.00 0.00 0.00 74 1024.4
20260509081520 59 98 0.0 1.7 0.00 0.00 0.00 73 1024.3
20260509080529 59 26 0.0 2.6 0.00 0.00 0.00 72 1024.1
20260509075518 59 317 0.0 1.7 0.00 0.00 0.00 71 1023.9
20260509074527 60 353 0.9 1.7 0.00 0.00 0.00 69 1024.0
20260509073544 60 356 0.0 1.7 0.00 0.00 0.00 68 1023.9
20260509072525 61 0.0 0.9 0.00 0.00 0.00 67 1023.8
20260509071536 62 342 0.0 1.7 0.00 0.00 0.00 65 1023.6
20260509070524 63 334 0.9 3.5 0.00 0.00 0.00 64 1023.4
20260509065554 63 325 1.7 4.3 0.00 0.00 0.00 62 1023.3
20260509064522 64 325 1.7 3.5 0.00 0.00 0.00 61 1023.2
20260509063532 64 335 1.7 2.6 0.00 0.00 0.00 60 1023.3
20260509062520 64 331 2.6 4.3 0.00 0.00 0.00 60 1023.2
20260509061536 64 311 2.6 5.2 0.00 0.00 0.00 59 1023.1
20260509060519 65 320 3.5 5.2 0.00 0.00 0.00 59 1023.1
20260509055528 65 317 2.6 5.2 0.00 0.00 0.00 58 1023.0
20260509054536 64 298 4.3 7.0 0.00 0.00 0.00 58 1023.0
20260509053525 64 330 2.6 5.2 0.00 0.00 0.00 58 1023.0
20260509052542 65 257 2.6 5.2 0.00 0.00 0.00 56 1023.0
20260509051523 65 297 3.5 5.2 0.00 0.00 0.00 56 1023.0
20260509050540 64 161 0.9 2.6 0.00 0.00 0.00 56 1022.8
20260509045522 64 61 1.7 4.3 0.00 0.00 0.00 56 1022.8
20260509044532 64 305 2.6 3.5 0.00 0.00 0.00 56 1022.9
20260509043521 63 14 1.7 4.3 0.00 0.00 0.00 59 1023.0
20260509042530 64 65 2.6 6.1 0.00 0.00 0.00 58 1023.0
20260509041520 63 10 1.7 5.2 0.00 0.00 0.00 60 1023.1
20260509040529 63 292 3.5 7.0 0.00 0.00 0.00 60 1023.0
20260509035519 62 240 1.7 4.3 0.00 0.00 0.00 61 1023.2
20260509034527 63 10 2.6 5.2 0.00 0.00 0.00 61 1023.0
20260509033516 63 334 3.5 7.0 0.00 0.00 0.00 61 1023.1